Regional Weather Roundup
Issued by NWS Raleigh/Durham, NC

Home | Current Version | Previous Version | Text Only | Print | Product List | Glossary On
Versions: 1 2 3 4 5 6 7 8 9 10 11 12 13 14 15 16 17 18 19 20 21 22 23 24 25 26 27 28 29 30 31 32 33 34 35 36 37 38 39 40 41 42 43 44 45 46 47 48 49 50
000
ASUS42 KRAH 220210
RWRRAH
NORTH CAROLINA WEATHER ROUNDUP
NATIONAL WEATHER SERVICE RALEIGH NC
900 PM EST THU FEB 21 2019

NOTE: "FAIR" INDICATES FEW OR NO CLOUDS BELOW 12,000 FEET WITH NO
SIGNIFICANT WEATHER AND/OR OBSTRUCTIONS TO VISIBILITY.

NCZ001-053-055-056-065-067-220300-
WESTERN NORTH CAROLINA

CITY           SKY/WX    TMP DP  RH WIND       PRES   REMARKS
ASHEVILLE      CLOUDY    55  52  89 N10       30.16S
JEFFERSON      LGT RAIN  50  46  84 W12       30.20R
MORGANTON      LGT RAIN  55  55  97 CALM      30.19R
HICKORY        LGT RAIN  56  55  97 E3        30.13R FOG
WILKESBORO     NOT AVBL
RUTHERFORDTON  CLOUDY    55  55 100 CALM      30.14S
MOUNT AIRY     FAIR      57  52  84 CALM      30.17S
BOONE          RAIN      51  50  95 W8        30.21R
$$

NCZ021-022-025-041-071-084-088-220300-
CENTRAL NORTH CAROLINA

CITY           SKY/WX    TMP DP  RH WIND       PRES   REMARKS
CHARLOTTE      CLOUDY    59  56  89 S6        30.14R FOG
GREENSBORO     CLOUDY    54  54 100 CALM      30.14R
WINSTON-SALEM  CLOUDY    56  53  90 N5        30.16R
RALEIGH-DURHAM MOCLDY    52  52 100 S3        30.16R
FORT BRAGG     CLOUDY    55  55 100 N3        30.14R
FAYETTEVILLE   MOCLDY    57  55  93 NE3       30.14R
BURLINGTON     MOCLDY    54  51  90 CALM      30.14R
ROXBORO        CLOUDY    50  50 100 CALM      30.18R
HENDERSON      FAIR      50  49  97 S3        30.15R
LOUISBURG      FAIR      52  52 100 CALM      30.18R
LAURINBURG     CLOUDY    63  61  93 CALM      30.14R
$$

NCZ011-015-027-028-043-044-047-080-103-220300-
NORTHEASTERN NORTH CAROLINA

CITY           SKY/WX    TMP DP  RH WIND       PRES   REMARKS
ROCKY MT-WILSO FAIR      52  52 100 S3        30.16R
GREENVILLE     FAIR      54  54 100 CALM      30.17R
WASHINGTON     FAIR      56  55  94 SW3       30.16R
ELIZABETH CITY CLOUDY    53  50  89 E5        30.16R
MANTEO         CLOUDY    52  51  95 CALM      30.16R
CAPE HATTERAS  CLOUDY    63  58  83 NW5       30.15S
$$

NCZ078-087-090-091-093-098-101-220300-
SOUTHEASTERN NORTH CAROLINA

CITY           SKY/WX    TMP DP  RH WIND       PRES   REMARKS
GOLDSBORO      NOT AVBL
KINSTON        CLOUDY    57  55  94 NW3       30.17R
KENANSVILLE      N/A     55  55 100 CALM      30.16R FOG
NEW BERN       MOCLDY    60  58  92 NW5       30.16R
CHERRY POINT   FAIR      61  61 100 CALM      30.16R
BEAUFORT       FAIR      58  55  90 CALM      30.15R
JACKSONVILLE   MOCLDY    66  61  84 N6        30.14R
WILMINGTON     FAIR      61  58  90 CALM      30.14R
$$




USA.gov is the U.S. government's official web portal to all federal, state and local government web resources and services.